Skip Page Navigation
NASA JPL Caltech
NASA Logo - Jet Propulsion Laboratory + View the NASA Portal
+ Center for Near-Earth Object Studies
JPL Home Earth Solar System Stars & Galaxies Technology
JPL Solar System Dynamics
BODIES ORBITS EPHEMERIDES TOOLS PHYSICAL DATA DISCOVERY FAQ SITE MAP
JPL Small-Body Database Browser
Search: [ help ]  
434647 (2005 XW97)
Classification: Outer Main-belt Asteroid          SPK-ID: 2434647
Ephemeris | Orbit Diagram | Orbital Elements | Mission Design | Physical Parameters | Discovery Circumstances | Close-Approach Data ]

[ show orbit diagram ]
Orbital Elements at Epoch 2459200.5 (2020-Dec-17.0) TDB
Reference: JPL 13 (heliocentric ecliptic J2000)
 Element Value Uncertainty (1-sigma)   Units 
e .09923149609360458 6.7782e-08  
a 3.425629015720939 5.8095e-08 au
q 3.085698723429288 2.1278e-07 au
i 8.008380501546309 8.0145e-06 deg
node 202.7964012103795 5.3292e-05 deg
peri 234.1246118864784 7.5232e-05 deg
M 100.221408194261 4.8577e-05 deg
tp 2458555.786269450654
(2019-Mar-13.28626945)
0.0003148 TDB
period 2315.841966098568
6.34
5.8911e-05
1.613e-07
d
yr
n .1554510218184195 3.9544e-09 deg/d
Q 3.765559308012589 6.386e-08 au
  Orbit Determination Parameters
   # obs. used (total)      129  
   data-arc span      6915 days (18.93 yr)  
   first obs. used      2002-05-08  
   last obs. used      2021-04-13  
   planetary ephem.      DE441  
   SB-pert. ephem.      SB441-N16  
   condition code      0  
   norm. resid. RMS      .61155  
   source      ORB  
   producer      Otto Matic  
   solution date      2021-May-04 12:53:19  

Additional Information
 Earth MOID = 2.10902 au 
 Jupiter MOID = 1.59182 au 
 T_jup = 3.118 
[ show covariance matrix ]

Ephemeris | Orbit Diagram | Orbital Elements | Mission Design | Physical Parameters | Discovery Circumstances | Close-Approach Data ]

Physical Parameter Table
Parameter Symbol Value Units Sigma Reference Notes
absolute magnitude H 16.36   n/a E2021B25  

434647 (2005 XW97)          Discovered 2005-Dec-01 by Buie, M. W. at Kitt Peak
Reference: Last Updated: 2015-06-04

[ hide close-approach data ]
Close-Approach Data   ...sorted by Date/Time (TDB)
Date/Time (TDB) Time Uncertainty
(days_HH:MM)
Body Nominal Distance (au) Minimum Distance (au) Maximum Distance (au) V-relative (km/s) V-infinity (km/s) JD (TDB) Time Uncertainty (minutes) Semi-major axis (km) Semi-minor axis (km) range-LOV angle (deg) N-sigma BP Orbit Ref. Reference Modified
1904-Jun-08 18:47 00:10 Jupiter 1.72728306672271 1.72728059673773 1.72728553678319 3.88897948576541 3.76077178301065 2416640.282939191 9.62305261866962 637.730345130394 40.5270318948372 82.0633944517456 1631434.85817047 T 13 CATAB v2.0g-lin.ifort 2021-May-04 12:53:20 2021-May-04 12:53
1917-Nov-19 14:32 00:08 Jupiter 1.98842870996875 1.98842611525536 1.98843130470192 4.7661426965405 4.67591323733927 2421552.105320917 8.22082614540292 354.11399671257 34.4968094491226 69.5607641561645 2704480.92585474 T 13 CATAB v2.0g-lin.ifort 2021-May-04 12:53:20 2021-May-04 12:53
1958-Mar-24 21:32 00:05 Jupiter 1.77940444133923 1.7794025701308 1.77940631256242 3.09945637818737 2.94187025892349 2436287.397553478 5.16943778497315 329.58896414207 39.1434093213729 77.9229518402054 1340404.80264709 T 13 CATAB v2.0g-lin.ifort 2021-May-04 12:53:20 2021-May-04 12:53
1971-Sep-19 09:22 00:04 Jupiter 1.54127670925132 1.54127583555866 1.54127758294346 2.20002675149756 1.93416640340754 2441213.890555557 4.1469716503522 238.490936814515 57.6480656325111 -81.6830788720577 955640.423718817 T 13 CATAB v2.0g-lin.ifort 2021-May-04 12:53:20 2021-May-04 12:53
1985-Jun-05 11:12 00:03 Jupiter 1.54915031990314 1.54914925210872 1.54915138769544 1.58632122930228 1.19284672825738 2446221.966428800 3.14739822116974 261.323169509718 143.480607342999 4.09195514800642 728191.175496107 T 13 CATAB v2.0g-lin.ifort 2021-May-04 12:53:20 2021-May-04 12:53
1999-Feb-02 05:06 00:01 Jupiter 1.66662448218915 1.66662349952494 1.66662546485336 3.55576867161594 3.4098442934499 2451211.712468467 1.47581307551168 113.927044008773 40.2338842890076 86.6065890049062 1444061.76435338 T 13 CATAB v2.0g-lin.ifort 2021-May-04 12:53:20 2021-May-04 12:53
2012-Jul-23 21:38 < 00:01 Jupiter 1.94154946186651 1.94154871428434 1.94155020944868 4.62711694279368 4.53185271107526 2456132.401097892 0.483388384473465 78.0061664736532 33.000185215298 82.4261873438524 2390241.54425881 T 13 CATAB v2.0g-lin.ifort 2021-May-04 12:53:20 2021-May-04 12:53
2052-Nov-16 14:21 00:03 Jupiter 1.84774005738975 1.84773826284565 1.84774185193699 3.30853352753717 3.1669502857043 2470858.097938073 2.8418262646125 182.515356276001 42.5702893245985 69.1254691344097 1340781.83916822 T 13 CATAB v2.0g-lin.ifort 2021-May-04 12:53:20 2021-May-04 12:53
2066-May-07 17:03 00:04 Jupiter 1.58604576580366 1.58604420222831 1.58604732938505 2.37178422015842 2.13477562805397 2475778.210634236 4.31014702158812 281.074230776312 37.3704426865133 89.0828926418643 914425.71648166 T 13 CATAB v2.0g-lin.ifort 2021-May-04 12:53:20 2021-May-04 12:53
2080-Jan-14 02:38 00:07 Jupiter 1.52026364364658 1.52026263363232 1.52026465366396 1.37104746826505 0.874906356665015 2480777.609709052 6.67071734827073 684.289861482725 190.929260109714 19.799377911503 1156275.93366467 T 13 CATAB v2.0g-lin.ifort 2021-May-04 12:53:20 2021-May-04 12:53
2093-Sep-24 19:57 00:07 Jupiter 1.60828061607082 1.60827864875391 1.60828258342815 3.22511297152546 3.05745431883908 2485780.331548358 7.07388221054734 490.328182651672 38.7647864624562 85.3291551478123 1250823.11742997 T 13 CATAB v2.0g-lin.ifort 2021-May-04 12:53:20 2021-May-04 12:53
2107-Mar-22 22:20 00:08 Jupiter 1.88673816441828 1.8867349004014 1.88674142846143 4.44044973735737 4.33817060221494 2490706.430805680 7.67940486539605 402.26210603626 38.5761615350005 68.1074146966423 2018407.41922982 T 13 CATAB v2.0g-lin.ifort 2021-May-04 12:53:20 2021-May-04 12:53
2147-Jul-12 07:18 00:11 Jupiter 1.9189123341092 1.91890791266959 1.91891675561316 3.54649720796189 3.4197700539633 2505427.803921679 10.6878161052194 621.481845426174 42.5471044437803 72.1539270189796 1493613.52453938 T 13 CATAB v2.0g-lin.ifort 2021-May-04 12:53:20 2021-May-04 12:53
2160-Dec-27 12:34 00:13 Jupiter 1.63742445285612 1.63742071535347 1.63742819046367 2.55610538225368 2.34501507093135 2510345.023325804 12.5473548420109 752.089142160445 35.0238617022756 85.9505947313673 1006646.77944148 T 13 CATAB v2.0g-lin.ifort 2021-May-04 12:53:20 2021-May-04 12:53
2174-Aug-24 11:53 00:16 Jupiter 1.52000929001541 1.52000800184617 1.52001057818499 1.31152394278907 0.778202133143174 2515332.995343514 16.3597895670668 731.735258963284 239.371000866192 12.5874262774162 968615.62733111 T 13 CATAB v2.0g-lin.ifort 2021-May-04 12:53:20 2021-May-04 12:53
2188-May-14 13:51 00:16 Jupiter 1.5468552659095 1.54685229335875 1.54685823870918 2.88041820175899 2.68358991451806 2520345.077211029 15.8983040187377 1095.80038705115 37.677163349186 -89.7658131907153 1098407.0148156 T 13 CATAB v2.0g-lin.ifort 2021-May-04 12:53:20 2021-May-04 12:53
Ephemeris | Orbit Diagram | Orbital Elements | Mission Design | Physical Parameters | Discovery Circumstances | Close-Approach Data ]
ABOUT SSD CREDITS/AWARDS PRIVACY/COPYRIGHT GLOSSARY LINKS
FirstGov 2021-May-10 23:16 UT
(server date/time)  
NASA Home Page
Site Manager:   Ryan S. Park
Webmaster  Alan B. Chamberlin